This is the latest recevied weather packets stored in our database for station/object OK1PNK-5. If no packets are shown the sender has not sent any weather packets the latest 10 day(s).
| Time | Temp. | Humidity | Pressure | Rain* | Wind** | Luminosity | Snow |
|---|---|---|---|---|---|---|---|
| 1777723943 | 25° C | 23% | 980 hPa | 0 mm | - | - | - |
| 1777723343 | 25° C | 26% | 980.1 hPa | 0 mm | - | - | - |
| 1777722743 | 24.44° C | 27% | 980.3 hPa | 0 mm | - | - | - |
| 1777722143 | 24.44° C | 27% | 980.4 hPa | 0 mm | - | - | - |
| 1777721543 | 24.44° C | 29% | 980.5 hPa | 0 mm | - | - | - |
| 1777720943 | 24.44° C | 29% | 980.5 hPa | 0 mm | - | - | - |
| 1777720343 | 23.89° C | 31% | 980.7 hPa | 0 mm | - | - | - |
| 1777719743 | 23.33° C | 34% | 980.8 hPa | 0 mm | - | - | - |
| 1777719143 | 23.33° C | 34% | 980.9 hPa | 0 mm | - | - | - |
| 1777718543 | 22.78° C | 37% | 981.1 hPa | 0 mm | - | - | - |
| 1777717943 | 22.22° C | 39% | 981.3 hPa | 0 mm | - | - | - |
| 1777717343 | 22.22° C | 39% | 981.3 hPa | 0 mm | - | - | - |
| 1777716743 | 21.67° C | 41% | 981.6 hPa | 0 mm | - | - | - |
| 1777716143 | 21.11° C | 42% | 981.7 hPa | 0 mm | - | - | - |
| 1777715543 | 21.11° C | 42% | 981.7 hPa | 0 mm | - | - | - |
| 1777714943 | 20° C | 45% | 982 hPa | 0 mm | - | - | - |
| 1777714343 | 20° C | 45% | 982 hPa | 0 mm | - | - | - |
| 1777713743 | 19.44° C | 47% | 982.1 hPa | 0 mm | - | - | - |
| 1777713143 | 19.44° C | 47% | 982.1 hPa | 0 mm | - | - | - |
| 1777712543 | 18.33° C | 50% | 982.2 hPa | 0 mm | - | - | - |
| 1777711943 | 16.67° C | 54% | 982.5 hPa | 0 mm | - | - | - |
| 1777711343 | 16.11° C | 55% | 982.5 hPa | 0 mm | - | - | - |
| 1777710743 | 10.56° C | 67% | 983 hPa | 0 mm | - | - | - |
| 1777710143 | 10.56° C | 67% | 983 hPa | 0 mm | - | - | - |
| 1777709543 | 10.56° C | 67% | 983 hPa | 0 mm | - | - | - |
* Rain latest hour (hover to see other rain measurements)
** Current wind speed in m/s (hover to see current wind gust speed)